TimeCAT,TemperatureF,Dew PointF,Humidity,Sea Level PressureIn,VisibilityMPH,Wind Direction,Wind SpeedMPH,Gust SpeedMPH,PrecipitationIn,Events,Conditions,WindDirDegrees,DateUTC
12:00 AM,64.4,53.6,68,30.09,-9999.0,NE,9.2,-,N/A,,Clear,50,2012-10-25 22:00:00
1:00 AM,64.4,53.6,68,30.06,-9999.0,NE,10.4,-,N/A,,Clear,40,2012-10-25 23:00:00
2:00 AM,63,53,62,,6,NE,6.9,,,,,40,2012-10-26 00:00:00
2:00 AM,62.6,53.6,72,30.04,-9999.0,NE,6.9,-,N/A,,Clear,40,2012-10-26 00:00:00
3:00 AM,62.6,53.6,72,30.04,-9999.0,ENE,6.9,-,N/A,,Clear,60,2012-10-26 01:00:00
4:00 AM,60.8,53.6,77,30.06,-9999.0,WSW,5.8,-,N/A,,Clear,250,2012-10-26 02:00:00
5:00 AM,60.8,53.6,77,30.06,-9999.0,East,4.6,-,N/A,,Clear,80,2012-10-26 03:00:00
6:00 AM,60.8,53.6,77,30.09,-9999.0,East,8.1,-,N/A,,Clear,100,2012-10-26 04:00:00
7:00 AM,62.6,55.4,77,30.09,6.2,ENE,13.8,-,N/A,,Partly Cloudy,70,2012-10-26 05:00:00
8:00 AM,64.4,55.4,73,30.12,6.2,ENE,15.0,-,N/A,,Mostly Cloudy,60,2012-10-26 06:00:00
9:00 AM,66.2,55.4,68,30.15,6.2,ENE,13.8,-,N/A,,Mostly Cloudy,60,2012-10-26 07:00:00
10:00 AM,69.8,55.4,60,30.15,6.2,NE,10.4,-,N/A,,Scattered Clouds,40,2012-10-26 08:00:00
12:00 PM,77.0,55.4,47,30.06,6.2,ENE,8.1,-,N/A,,Partly Cloudy,60,2012-10-26 10:00:00
1:00 PM,78.8,55.4,44,30.04,6.2,East,6.9,-,N/A,,Partly Cloudy,90,2012-10-26 11:00:00
2:00 PM,82.4,53.6,37,30.01,6.2,Variable,5.8,-,N/A,,Partly Cloudy,0,2012-10-26 12:00:00
4:00 PM,86.0,53.6,33,29.95,6.2,ENE,8.1,-,N/A,,Scattered Clouds,70,2012-10-26 14:00:00
5:00 PM,86.0,53.6,33,29.92,6.2,ENE,10.4,-,N/A,,Partly Cloudy,70,2012-10-26 15:00:00
6:00 PM,84.2,53.6,35,29.92,6.2,ENE,13.8,-,N/A,,Partly Cloudy,60,2012-10-26 16:00:00
7:00 PM,82.4,55.4,39,29.95,6.2,ENE,9.2,-,N/A,,Partly Cloudy,60,2012-10-26 17:00:00
8:00 PM,80,55,32,,6,ENE,3.5,,,,Scattered Clouds,60,2012-10-26 18:00:00
8:00 PM,80.6,55.4,42,29.98,6.2,ENE,3.5,-,N/A,,Mostly Cloudy,60,2012-10-26 18:00:00
9:00 PM,75.2,57.2,53,30.01,6.2,ENE,5.8,-,N/A,,Scattered Clouds,70,2012-10-26 19:00:00
10:00 PM,77.0,55.4,47,30.01,6.2,NNE,8.1,-,N/A,,Scattered Clouds,20,2012-10-26 20:00:00
11:00 PM,75.2,57.2,53,30.01,6.2,North,6.9,-,N/A,,Scattered Clouds,10,2012-10-26 21:00:00